Retour au catalogue

STARLINK-36526

ActifCommunicationsVLEO
NORAD 67508·PAYLOAD·🇺🇸 United States

Lancé Jan 18, 2026 depuis Cape Canaveral Space Force Station

Loading…

Prochains Passages (prochaines 24 heures)

TLE

FraisSource: CelesTrak SupGP

Époque: Sep 14, 2026, 21:13 UTC

1 67508C 26012R   26257.88451389 -.00028883  00000+0 -10463-2 0  2578
2 67508  43.0021 325.4786 0001670 273.7961  22.2726 15.27587898    14

Suivez STARLINK-36526 en temps réel avec AllMySat

Download on the App Store